Regional Weather Roundup
Issued by NWS

Home | Current Version | Previous Version | Graphics & Text | Print | Product List | Glossary On
Versions: 1 2 3 4 5 6 7 8 9 10 11 12 13 14 15 16 17 18 19 20 21 22 23 24 25 26 27 28 29 30 31 32 33 34 35 36 37 38 39 40 41 42 43 44 45 46 47 48 49 50
000
ASUS43 KTOP 230608
RWRKS

WEATHER ROUNDUP FOR KANSAS
NATIONAL WEATHER SERVICE GOODLAND KS
100 AM CDT SUN JUL 23 2017

NOTE:  "FAIR" INDICATES FEW OR NO CLOUDS BELOW 12,000 FEET WITH NO
SIGNIFICANT WEATHER AND/OR OBSTRUCTIONS TO VISIBILITY.

KSZ001>006-013>018-027>032-041>047-230700-
NORTHWEST KANSAS

CITY           SKY/WX    TMP DP  RH WIND       PRES   REMARKS
GOODLAND       CLEAR     63  55  75 CALM      30.11S
6HR MIN TEMP:  62; 6HR MAX TEMP:  83;

HAYS           PTCLDY    68  65  90 W5        30.00R
HILL CITY      CLEAR     70  67  90 NW6       30.00R
6HR MIN TEMP:  69; 6HR MAX TEMP:  77; 6HR PCP:  0.06;

RUSSELL        PTCLDY    69  66  90 CALM      29.95R
6HR MIN TEMP:  69; 6HR MAX TEMP:  80; 6HR PCP:  0.03;

$$

KSZ061>065-074>080-084>089-230700-
SOUTHWEST KANSAS

CITY           SKY/WX    TMP DP  RH WIND       PRES   REMARKS
DODGE CITY     CLOUDY    73  64  73 E6        30.02R
6HR MIN TEMP:  72; 6HR MAX TEMP: 100; 6HR PCP:  0.09;

ELKHART          N/A     69  55  60 S5          N/A
GARDEN CITY    MOCLDY    73  64  73 NE9       30.03S
6HR MIN TEMP:  73; 6HR MAX TEMP:  86; 6HR PCP: TRACE;

LIBERAL        PTCLDY    74  64  71 NW15      30.03R
PRATT          CLOUDY    72  62  69 S8        29.99R
6HR MIN TEMP:  72; 6HR MAX TEMP: 100;

$$

KSZ066>073-081>083-090>101-230700-
SOUTHEAST KANSAS

CITY           SKY/WX    TMP DP  RH WIND       PRES   REMARKS
CHANUTE        CLOUDY    81  66  60 N13       29.96R
6HR MIN TEMP:  81; 6HR MAX TEMP:  97;

COFFEYVILLE    CLOUDY    88  72  58 NW9       29.91R
6HR MIN TEMP:  83; 6HR MAX TEMP:  96;

HUTCHINSON     CLOUDY    74  66  76 SE10      29.93F
6HR MIN TEMP:  73; 6HR MAX TEMP: 104; 6HR PCP:  0.06;

MEDICINE LODGE   N/A     78  64  61 CALM      29.97R
NEWTON         CLOUDY    73  67  81 E8        29.95F
PARSONS        CLOUDY    82  65  56 N9        29.95R
6HR MIN TEMP:  82; 6HR MAX TEMP:  95;

WICHITA INTL   PTCLDY    74  70  87 NE10      29.93F
6HR MIN TEMP:  73; 6HR MAX TEMP: 102; 6HR PCP:  0.23;

WICHITA JABRA  CLOUDY    72  68  87 NE10      29.93F
6HR MIN TEMP:  70; 6HR MAX TEMP: 101; 6HR PCP:  0.90;

WICHITA MCCONL CLOUDY    73  69  87 E9        29.93F
WINFIELD       CLOUDY    81  65  58 NE16G25   29.95F
6HR MIN TEMP:  81; 6HR MAX TEMP: 100;

$$

KSZ007>012-019>026-033>040-048>060-102>105-230700-
NORTHEAST KANSAS

CITY           SKY/WX    TMP DP  RH WIND       PRES   REMARKS
CONCORDIA      PTCLDY    69  69 100 E3        29.92F
6HR MIN TEMP:  68; 6HR MAX TEMP:  87; 6HR PCP:  0.05;

EMPORIA        CLOUDY    72  66  81 S17       29.96R THUNDER
6HR MIN TEMP:  70; 6HR MAX TEMP:  98; 6HR PCP:  0.14;

LAWRENCE       LGT RAIN  73  72  96 CALM      29.93F
6HR MIN TEMP:  71; 6HR MAX TEMP:  91; 6HR PCP:  0.45;

MANHATTAN      MOCLDY    72  68  87 W14       29.89S
6HR MIN TEMP:  71; 6HR MAX TEMP:  93; 6HR PCP:  0.36;

MARYSVILLE     CLOUDY    73  70  88 CALM      29.94F
OLATHE IND     LGT RAIN  70  67  90 E3        29.96S
6HR MIN TEMP:  68; 6HR MAX TEMP:  96; 6HR PCP:  1.85;

OLATHE EXE     LGT RAIN  68  68 100 S7        29.97R
6HR MIN TEMP:  67; 6HR MAX TEMP:  96; 6HR PCP:  2.09;

SALINA         CLOUDY    77  67  71 NE6       29.91R
6HR MIN TEMP:  74; 6HR MAX TEMP:  88; 6HR PCP:  0.43;

TOPEKA BILLARD LGT RAIN  73  72  96 SE8       29.89F
6HR MIN TEMP:  73; 6HR MAX TEMP:  92; 6HR PCP:  1.61;

TOPEKA FORBES  LGT RAIN  74  72  93 SE7       29.91F
6HR MIN TEMP:  73; 6HR MAX TEMP:  94; 6HR PCP:  1.01;

$$




USA.gov is the U.S. government's official web portal to all federal, state and local government web resources and services.